www.pogodaiklimat.ru

Погода и климат >> Архив погоды >> Россия >> Ростовская область >> Шахты


АРХИВ ПОГОДЫ в Шахтах

Время (UTC), дата Ветер
(напр.,м/с)
 
Видим.   Явления Облачность Т
(С)
Тd
(С)
f
(%)
Тe
(С)
Тes
(С)
Комфортность P
(гПа)
Po
(гПа)
Тmin
(С)
Tmax
(С)
R
(мм)
R24
(мм)
S
(см)
21 11.09 СВ 3 10 км ясно +17.3 +5.3 45 +17 +17 тепло 1027.3 1013.2
00 12.09 В 2 10 км ясно +14.6 +5.9 56 +14 +14 по сезону 1027.4 1013.2
03 12.09 штиль 0 20 км ясно +10.3 +6.8 79 +10 +10 прохладно 1028.1 1013.6 +10.3
06 12.09 СВ 4 20 км ясно +21.8 +4.8 33 +22 +25 комфорт 1028.1 1014.2
09 12.09 В 5
{11}
20 км ясно +25.8 +1.4 20 +24 +30 комфорт 1026.9 1013.2
12 12.09 В 5
{11}
20 км ясно +27.0 -2.1 15 +25 +28 комфорт 1025.4 1011.8
15 12.09 В 3 20 км ясно +23.8 -1.2 19 +22 +23 комфорт 1024.8 1011.1 +27.3
18 12.09 СВ 1 10 км ясно +13.5 +2.2 46 +14 +14 по сезону 1025.8 1011.6
21 12.09 В 1 10 км ясно +11.9 +2.3 52 +12 +12 по сезону 1025.1 1010.7
00 13.09 СВ 1 10 км ясно +10.9 +2.9 58 +11 +11 по сезону 1025.0 1010.6
03 13.09 СВ 1 20 км ясно +9.1 +2.9 65 +9 +9 холодно 1025.2 1010.7 +9.1
06 13.09 СВ 2 20 км ясно +22.0 +4.5 32 +22 +27 комфорт 1025.3 1011.4 +9.0
09 13.09 ЮВ 2-10
{10}
20 км 3/3 1000 м
[Cu hum]
+26.2 +3.1 22 +25 +32 комфорт 1024.2 1010.6
12 13.09 ЮВ 2
{10}
20 км 3/3 1000 м
[Cu hum]
+27.5 +1.9 19 +26 +30 жарко 1022.7 1009.1
15 13.09 ЮВ 1 20 км 1/0
[Ac trans]
+21.2 +5.3 35 +22 +22 комфорт 1022.4 1008.5 +27.7
18 13.09 В 1 10 км ясно +15.1 +4.6 49 +16 +16 по сезону 1023.2 1009.0
21 13.09 В 1 10 км ясно +13.3 +4.0 53 +14 +14 по сезону 1022.8 1008.6
00 14.09 штиль 0 10 км ясно +10.8 +4.3 64 +10 +10 по сезону 1022.7 1008.3
03 14.09 В 1 20 км ясно +9.3 +5.0 74 +9 +9 прохладно 1022.4 1008.0 +9.3
06 14.09 штиль 0 20 км ясно +22.8 +6.9 36 +24 +30 комфорт 1021.9 1008.2
09 14.09 ЮВ 2 20 км 1/1 1000 м
[Cu hum]
+26.4 +1.6 20 +25 +34 комфорт 1020.2 1006.6
12 14.09 Ю 1 20 км 4/4 1000 м
[Cu Sc]
+25.9 +2.6 22 +25 +29 комфорт 1018.6 1005.1
15 14.09 штиль 0 20 км 6/5 1000 м
[Sc diur, vesp Ci fib]
+24.0 +3.2 26 +23 +23 комфорт 1017.6 1003.9 +28.0
18 14.09 ЮВ 1 10 км 4/0
[Ac trans Ci fib]
+17.3 +3.5 40 +18 +18 тепло 1017.8 1003.8
21 14.09 штиль 0 10 км 3/0
[Ac trans Ci fib]
+14.4 +4.3 51 +14 +14 по сезону 1017.9 1003.8
00 15.09 С 1 10 км 8/0
[Ac trans Ci fib]
+15.8 +8.5 62 +17 +17 тепло 1017.8 1003.8
03 15.09 СВ 2 10 км 8/0
[Ac trans]
+15.7 +7.1 57 +16 +16 тепло 1018.7 1004.6 +13.7
06 15.09 СВ 2 20 км 4/1 1000 м
[Cu med, cong Ac lent]
+17.0 +7.6 54 +17 +20 тепло 1020.4 1006.4
09 15.09 С 2 20 км ясно +21.3 +1.2 26 +21 +32 комфорт 1020.5 1006.7
12 15.09 СЗ 2 20 км ясно +22.9 -1.8 19 +22 +28 комфорт 1019.8 1006.1
15 15.09 С 1 20 км ясно +18.8 -0.7 27 +20 +20 тепло 1020.0 1006.0 +23.2
18 15.09 штиль 0 10 км ясно +11.4 +1.7 51 +11 +11 прохладно 1021.2 1006.9
21 15.09 штиль 0 10 км ясно +8.3 +2.2 65 +8 +8 холодно 1021.1 1006.6
00 16.09 штиль 0 10 км ясно +6.5 +2.9 78 +6 +6 холодно 1020.0 1005.5
03 16.09 штиль 0 20 км ясно +5.7 +2.6 80 +5 +5 очень
холодно
1019.8 1005.2 +5.5
06 16.09 ЮЗ 2 20 км ясно +16.8 +3.5 41 +17 +22 тепло 1018.0 1004.0
09 16.09 ЮЗ 2 20 км ясно +23.3 +0.1 22 +22 +33 комфорт 1015.1 1001.4
12 16.09 ЮЗ 3 20 км ясно +24.5 -0.7 19 +23 +28 комфорт 1012.7 999.1
15 16.09 ЮЗ 2 20 км ясно +21.3 -1.7 21 +21 +21 комфорт 1011.4 997.7 +24.8
18 16.09 З 1 10 км ясно +15.9 +3.1 42 +17 +17 тепло 1011.7 997.8
21 16.09 ЮЗ 1 10 км ясно +13.7 +6.6 62 +14 +14 по сезону 1011.4 997.3
00 17.09 ЮЗ 1 10 км ясно +12.8 +10.2 84 +13 +13 по сезону 1010.3 996.2
03 17.09 ЮЗ 1 4000 м дымка ясно +13.5 +11.9 90 +14 +14 по сезону 1009.6 995.6 +11.9
06 17.09 З 3 20 км ясно +20.0 +13.0 64 +22 +26 комфорт 1008.8 995.1
09 17.09 З 4-10
{10}
20 км 8/6 1000 м
[Cu med, cong Ac trans]
+24.8 +10.2 40 +26 +28 жарко 1007.7 994.2
12 17.09 З 2
{10}
2000 м гроза, ливневой дождь 9/9 600 м
[Cb cap]
+15.9 +15.7 99 +16 +16 холодно 1007.8 994.0
15 17.09 штиль 0 4000 м слаб. ливневой дождь {гроза} 10/10 600 м
[Cb cap]
+14.5 +14.5 100 +14 +14 прохладно 1009.2 995.2 +26.0 25
18 17.09 штиль 0 4000 м в посл. час ливневой дождь {гроза} 10/10 600 м
[Cb cap]
+14.3 +13.8 97 +14 +14 по сезону 1009.2 995.3
21 17.09 штиль 0 1000 м дымка 3/3 1000 м
[Sc diur, vesp]
+13.3 +13.3 100 +13 +13 по сезону 1009.0 995.0
00 18.09 ЮЗ 1 1000 м дымка ясно +12.3 +12.3 100 +12 +12 по сезону 1009.0 994.9
03 18.09 З 1 2000 м дымка 8/0
[Ac trans]
+10.5 +10.5 100 +10 +10 прохладно 1009.2 995.0 +10.5 3
06 18.09 ЮЗ 1 4000 м дымка 8/0
[Ac trans]
+14.6 +14.3 98 +15 +18 по сезону 1009.4 995.5 +10.4
09 18.09 ЮЗ 2 20 км 10/8 1000 м
[Cb cap Ac trans]
+19.2 +13.6 70 +21 +22 комфорт 1007.3 993.6
12 18.09 ЮЗ 5-22
{22}
10 км 10/8 600 м
[Cb cap Ac As]
+22.7 +15.3 63 +27 +27 душно 1002.7 989.2
15 18.09 З 3
{22}
20 км {ливн. осадки} 9/6 600 м
[Cb cap Ac trans]
+17.2 +13.4 78 +17 +17 по сезону 1005.6 991.8 +23.6 0.8

 

Местоположение метеостанции Шахты (Ростовская область, Россия): широта 47.70 долгота 40.27 высота над уровнем моря 117 м.

В архиве по умолчанию представлена погода в Шахтах за последнюю неделю. Архивные данные за месяц целиком и за предыдущие месяцы, начиная с января 2011 года, Вы можете получить, выбрав интересующий диапазон дат из раскрывающегося списка и нажав кнопку "Ввод!".


*Определитесь, кто Вы:
робот инопланетянин человек

Внимание! Время в таблицах - всемирное. Для получения местного времени необходимо прибавить поправку, которая равна 3 ч.

Смотрите также архив погоды в соседних городах и на ближайших метеорологических станциях:

Погода в Аэропорту Платов (Ростовская область, Россия) (35 км)
Погода в Семикаракорске (Ростовская область, Россия) (47 км)
Погода в Ростове-на-Дону (Ростовская область, Россия) (59 км)
Погода в Константиновске (Ростовская область, Россия) (64 км)
Погода в Каменск-Шахтинском (Ростовская область, Россия) (67 км)
Погода в Белой Калитве (Ростовская область, Россия) (72 км)
Погода в Зерноград (Ростовская область, Россия) (95 км)
Погода в Матвеевом Кургане (Ростовская область, Россия) (105 км)
Погода в Таганроге (Ростовская область, Россия) (117 км)
Погода в Маргаритово (Ростовская область, Россия) (136 км)

Пояснения к столбцам:

Ветер - указаны скорость ветра в м/с - средняя за 10 мин, порывы в срок и между сроками (в фигурных скобках) и направление, откуда дует ветер: С - северный, СВ - северо-восточный, В - восточный, ЮВ - юго-восточный, Ю - южный, ЮЗ - юго-западный, З - западный, СЗ - северо-западный.
Видимость - горизонтальная дальность видимости в метрах или километрах. При видимости от 1 до 10 км при отсутствии осадков обычно наблюдается дымка, при ухудшении видимости до 1 км и менее - туман. В сухую погоду видимость может ухудшаться дымом, пылью или мглою.
Явления - указаны атмосферные явления, наблюдавшиеся в срок или в последний час перед сроком; фигурными скобками обозначены явления, наблюдавшиеся между сроками (за 1-3 часа до срока); квадратными скобками обозначены град или гололедные отложения с указанием их диаметра в мм.
Облачность - указаны через наклонную черту общая и нижняя облачность в баллах и высота нижней границы облаков в метрах; квадратными скобками обозначены формы облаков: Ci - перистые, Cs - перисто-слоистые, Cc - перисто-кучевые, Ac - высококучевые, As - высокослоистые, Sc - слоисто-кучевые, Ns - слоисто-дождевые, Cu - кучевые, Cb - кучево-дождевые. Подробнее классификацию облаков см. в Атласе облаков (PDF).
T - Температура воздуха - температура, измеренная на высоте 2 м над землей.
Td - Температура точки росы - температура, при понижении до которой содержащийся в воздухе водяной пар достигнет насыщения.
f - Относительная влажность воздуха - влажноcть воздуха, измеренная на высоте 2 м над землей.
Te - Эффективная температура - температура, которую ощущает одетый по сезону человек в тени. Характеристика душности погоды. При расчете учитывается влияние влажности воздуха и скорости ветра на теплоощущения человека.
Tes - Эффективная температура на солнце - температура, которую ощущает человек, с поправкой на солнечный нагрев. Характеристика знойности погоды. Зависит от высоты солнца над горизонтом, облачности и скорости ветра. Ночью, в пасмурную погоду, а также при ветре 12 м/с и более поправка равна нулю.
P - Атмосферное давление - приведенное к уровню моря атмосферное давление.
Po - Атмосферное давление - измеренное на уровне метеостанции атмосферное давление.
Tmin - Минимальная температура - минимум температуры воздуха на высоте 2 м над землей.
Tmax - Максимальная температура - максимум температуры воздуха на высоте 2 м над землей.
R - Количество осадков - Количество выпавших осадков за период времени, мм. При наведении курсора мыши на число - период времени, за который выпало указанное количество осадков.
R24 - Количество осадков - Количество выпавших осадков за 24 часа, мм.
S - Снежный покров - Высота снежного покрова, см. При наведении курсора мыши на число - состояние снежного покрова и степень покрытия местности в баллах.